Year,Month,Day,Hour,Minute,Value (Times are PST for windgust in km/hr)
2021,07,06,06,39,1.60
2021,07,06,09,19,9.60
2021,07,06,09,20,8.10
2021,07,06,09,21,4.80
2021,07,06,09,22,6.40
2021,07,06,09,23,1.60
2021,07,06,09,24,3.20
2021,07,06,09,25,1.60
2021,07,06,09,26,1.60
2021,07,06,09,27,4.80
2021,07,06,09,28,3.20
2021,07,06,09,29,3.20
2021,07,06,09,30,1.60
2021,07,06,09,32,1.60
2021,07,06,09,33,1.60
2021,07,06,09,34,1.60
2021,07,06,09,35,4.80
2021,07,06,09,36,3.20
2021,07,06,09,37,1.60
2021,07,06,09,38,1.60
2021,07,06,09,39,1.60
2021,07,06,09,40,3.20
2021,07,06,09,41,1.60
2021,07,06,09,42,1.60
2021,07,06,09,43,3.20
2021,07,06,09,44,1.60
2021,07,06,09,45,3.20
2021,07,06,09,46,8.10
2021,07,06,09,47,8.10
2021,07,06,09,48,4.80
2021,07,06,09,49,4.80
2021,07,06,09,50,1.60
2021,07,06,09,51,4.80
2021,07,06,09,52,4.80
2021,07,06,09,53,8.10
2021,07,06,09,54,4.80
2021,07,06,09,55,4.80
2021,07,06,09,56,4.80
2021,07,06,09,57,6.40
2021,07,06,09,58,8.10
2021,07,06,09,59,3.20
2021,07,06,10,00,4.80
2021,07,06,10,01,4.80
2021,07,06,10,02,3.20
2021,07,06,10,03,6.40
2021,07,06,10,04,11.30
2021,07,06,10,05,4.80
2021,07,06,10,06,9.60
2021,07,06,10,07,11.30
2021,07,06,10,08,11.30
2021,07,06,10,09,3.20
2021,07,06,10,10,12.90
2021,07,06,10,11,14.50
2021,07,06,10,12,11.30
2021,07,06,10,13,12.90
2021,07,06,10,14,6.40
2021,07,06,10,15,4.80
2021,07,06,10,16,6.40
2021,07,06,10,17,11.30
2021,07,06,10,18,8.10
2021,07,06,10,19,12.90
2021,07,06,10,20,9.60
2021,07,06,10,21,1.60
2021,07,06,10,22,3.20
2021,07,06,10,23,6.40
2021,07,06,10,24,1.60
2021,07,06,10,25,4.80
2021,07,06,10,26,3.20
2021,07,06,10,27,8.10
2021,07,06,10,28,6.40
2021,07,06,10,29,8.10
2021,07,06,10,30,8.10
2021,07,06,10,31,3.20
2021,07,06,10,32,6.40
2021,07,06,10,33,8.10
2021,07,06,10,34,3.20
2021,07,06,10,35,4.80
2021,07,06,10,36,8.10
2021,07,06,10,37,4.80
2021,07,06,10,38,4.80
2021,07,06,10,39,9.60
2021,07,06,10,40,9.60
2021,07,06,10,41,8.10
2021,07,06,10,42,11.30
2021,07,06,10,43,9.60
2021,07,06,10,44,14.50
2021,07,06,10,45,14.50
2021,07,06,10,46,12.90
2021,07,06,10,47,8.10
2021,07,06,10,48,4.80
2021,07,06,10,49,6.40
2021,07,06,10,50,3.20
2021,07,06,10,51,4.80
2021,07,06,10,52,6.40
2021,07,06,10,53,11.30
2021,07,06,10,54,11.30
2021,07,06,10,55,4.80
2021,07,06,10,56,6.40
2021,07,06,10,57,8.10
2021,07,06,10,58,8.10
2021,07,06,10,59,11.30
2021,07,06,11,00,12.90
2021,07,06,11,01,8.10
2021,07,06,11,02,9.60
2021,07,06,11,03,3.20
2021,07,06,11,04,3.20
2021,07,06,11,05,3.20
2021,07,06,11,06,3.20
2021,07,06,11,07,4.80
2021,07,06,11,08,4.80
2021,07,06,11,09,4.80
2021,07,06,11,10,8.10
2021,07,06,11,11,6.40
2021,07,06,11,12,6.40
2021,07,06,11,13,8.10
2021,07,06,11,14,8.10
2021,07,06,11,15,8.10
2021,07,06,11,16,4.80
2021,07,06,11,17,11.30
2021,07,06,11,18,4.80
2021,07,06,11,19,8.10
2021,07,06,11,20,6.40
2021,07,06,11,21,11.30
2021,07,06,11,22,9.60
2021,07,06,11,23,8.10
2021,07,06,11,24,11.30
2021,07,06,11,25,12.90
2021,07,06,11,26,3.20
2021,07,06,11,27,1.60
2021,07,06,11,28,12.90
2021,07,06,11,29,9.60
2021,07,06,11,30,4.80
2021,07,06,11,31,11.30
2021,07,06,11,32,8.10
2021,07,06,11,33,4.80
2021,07,06,11,34,8.10
2021,07,06,11,35,8.10
2021,07,06,11,36,4.80
2021,07,06,11,37,4.80
2021,07,06,11,38,8.10
2021,07,06,11,39,4.80
2021,07,06,11,40,1.60
2021,07,06,11,41,8.10
2021,07,06,11,42,6.40
2021,07,06,11,43,6.40
2021,07,06,11,44,6.40
2021,07,06,11,45,4.80
2021,07,06,11,46,3.20
2021,07,06,11,47,8.10
2021,07,06,11,48,4.80
2021,07,06,11,49,6.40
2021,07,06,11,50,1.60
2021,07,06,11,51,3.20
2021,07,06,11,52,6.40
2021,07,06,11,53,4.80
2021,07,06,11,54,4.80
2021,07,06,11,55,11.30
2021,07,06,11,56,6.40
2021,07,06,11,57,4.80
2021,07,06,11,58,3.20
2021,07,06,11,59,1.60
2021,07,06,12,00,3.20
2021,07,06,12,01,3.20
2021,07,06,12,02,9.60
2021,07,06,12,03,11.30
2021,07,06,12,04,4.80
2021,07,06,12,05,8.10
2021,07,06,12,06,11.30
2021,07,06,12,07,4.80
2021,07,06,12,08,8.10
2021,07,06,12,09,4.80
2021,07,06,12,10,1.60
2021,07,06,12,11,6.40
2021,07,06,12,12,9.60
2021,07,06,12,13,11.30
2021,07,06,12,14,11.30
2021,07,06,12,15,12.90
2021,07,06,12,16,11.30
2021,07,06,12,17,14.50
2021,07,06,12,18,9.60
2021,07,06,12,19,12.90
2021,07,06,12,20,4.80
2021,07,06,12,21,6.40
2021,07,06,12,22,4.80
2021,07,06,12,23,3.20
2021,07,06,12,24,6.40
2021,07,06,12,25,4.80
2021,07,06,12,26,1.60
2021,07,06,12,27,4.80
2021,07,06,12,28,4.80
2021,07,06,12,29,4.80
2021,07,06,12,30,3.20
2021,07,06,12,31,4.80
2021,07,06,12,32,4.80
2021,07,06,12,33,8.10
2021,07,06,12,34,6.40
2021,07,06,12,35,3.20
2021,07,06,12,36,11.30
2021,07,06,12,37,6.40
2021,07,06,12,38,6.40
2021,07,06,12,39,1.60
2021,07,06,12,40,1.60
2021,07,06,12,41,3.20
2021,07,06,12,42,4.80
2021,07,06,12,43,4.80
2021,07,06,12,45,1.60
2021,07,06,12,46,3.20
2021,07,06,12,47,3.20
2021,07,06,12,48,11.30
2021,07,06,12,49,8.10
2021,07,06,12,50,4.80
2021,07,06,12,51,6.40
2021,07,06,12,52,3.20
2021,07,06,12,53,3.20
2021,07,06,12,54,1.60
2021,07,06,12,55,3.20
2021,07,06,12,56,3.20
2021,07,06,12,57,6.40
2021,07,06,12,58,3.20
2021,07,06,12,59,3.20
2021,07,06,13,00,8.10
2021,07,06,13,01,12.90
2021,07,06,13,02,9.60
2021,07,06,13,03,9.60
2021,07,06,13,04,8.10
2021,07,06,13,05,12.90
2021,07,06,13,06,8.10
2021,07,06,13,07,12.90
2021,07,06,13,08,9.60
2021,07,06,13,09,4.80
2021,07,06,13,10,4.80
2021,07,06,13,11,3.20
2021,07,06,13,12,1.60
2021,07,06,13,13,4.80
2021,07,06,13,14,3.20
2021,07,06,13,15,1.60
2021,07,06,13,16,4.80
2021,07,06,13,17,1.60
2021,07,06,13,18,4.80
2021,07,06,13,19,6.40
2021,07,06,13,20,4.80
2021,07,06,13,21,6.40
2021,07,06,13,22,8.10
2021,07,06,13,23,4.80
2021,07,06,13,24,4.80
2021,07,06,13,25,4.80
2021,07,06,13,26,8.10
2021,07,06,13,27,4.80
2021,07,06,13,28,3.20
2021,07,06,13,29,4.80
2021,07,06,13,30,6.40
2021,07,06,13,31,1.60
2021,07,06,13,32,6.40
2021,07,06,13,33,6.40
2021,07,06,13,34,3.20
2021,07,06,13,35,6.40
2021,07,06,13,36,4.80
2021,07,06,13,37,4.80
2021,07,06,13,38,3.20
2021,07,06,13,39,8.10
2021,07,06,13,40,6.40
2021,07,06,13,41,4.80
2021,07,06,13,42,4.80
2021,07,06,13,43,3.20
2021,07,06,13,44,3.20
2021,07,06,13,45,8.10
2021,07,06,13,46,4.80
2021,07,06,13,47,6.40
2021,07,06,13,48,11.30
2021,07,06,13,49,11.30
2021,07,06,13,50,8.10
2021,07,06,13,51,9.60
2021,07,06,13,52,12.90
2021,07,06,13,53,4.80
2021,07,06,13,54,8.10
2021,07,06,13,55,4.80
2021,07,06,13,56,3.20
2021,07,06,13,57,4.80
2021,07,06,13,58,6.40
2021,07,06,13,59,6.40
2021,07,06,14,00,3.20
2021,07,06,14,01,8.10
2021,07,06,14,02,6.40
2021,07,06,14,03,4.80
2021,07,06,14,04,4.80
2021,07,06,14,05,3.20
2021,07,06,14,06,3.20
2021,07,06,14,07,4.80
2021,07,06,14,08,4.80
2021,07,06,14,09,4.80
2021,07,06,14,10,8.10
2021,07,06,14,11,11.30
2021,07,06,14,12,9.60
2021,07,06,14,13,8.10
2021,07,06,14,14,3.20
2021,07,06,14,15,6.40
2021,07,06,14,16,6.40
2021,07,06,14,17,8.10
2021,07,06,14,18,4.80
2021,07,06,14,19,8.10
2021,07,06,14,20,8.10
2021,07,06,14,21,4.80
2021,07,06,14,22,4.80
2021,07,06,14,23,11.30
2021,07,06,14,24,6.40
2021,07,06,14,25,11.30
2021,07,06,14,26,11.30
2021,07,06,14,27,11.30
2021,07,06,14,28,12.90
2021,07,06,14,29,4.80
2021,07,06,14,30,12.90
2021,07,06,14,31,11.30
2021,07,06,14,32,6.40
2021,07,06,14,33,6.40
2021,07,06,14,34,9.60
2021,07,06,14,35,9.60
2021,07,06,14,36,4.80
2021,07,06,14,37,8.10
2021,07,06,14,38,11.30
2021,07,06,14,39,6.40
2021,07,06,14,40,4.80
2021,07,06,14,41,9.60
2021,07,06,14,42,8.10
2021,07,06,14,43,8.10
2021,07,06,14,44,8.10
2021,07,06,14,45,8.10
2021,07,06,14,46,8.10
2021,07,06,14,47,9.60
2021,07,06,14,48,9.60
2021,07,06,14,49,6.40
2021,07,06,14,50,11.30
2021,07,06,14,51,11.30
2021,07,06,14,52,11.30
2021,07,06,14,53,8.10
2021,07,06,14,54,11.30
2021,07,06,14,55,12.90
2021,07,06,14,56,11.30
2021,07,06,14,57,11.30
2021,07,06,14,58,12.90
2021,07,06,14,59,12.90
2021,07,06,15,00,12.90
2021,07,06,15,01,8.10
2021,07,06,15,02,12.90
2021,07,06,15,03,11.30
2021,07,06,15,04,8.10
2021,07,06,15,05,9.60
2021,07,06,15,06,12.90
2021,07,06,15,07,11.30
2021,07,06,15,08,8.10
2021,07,06,15,09,11.30
2021,07,06,15,10,8.10
2021,07,06,15,11,11.30
2021,07,06,15,12,9.60
2021,07,06,15,13,8.10
2021,07,06,15,14,8.10
2021,07,06,15,15,11.30
2021,07,06,15,16,12.90
2021,07,06,15,17,11.30
2021,07,06,15,18,8.10
2021,07,06,15,19,11.30
2021,07,06,15,20,9.60
2021,07,06,15,21,11.30
2021,07,06,15,22,11.30
2021,07,06,15,23,11.30
2021,07,06,15,24,8.10
2021,07,06,15,25,6.40
2021,07,06,15,26,6.40
2021,07,06,15,27,6.40
2021,07,06,15,28,4.80
2021,07,06,15,29,6.40
2021,07,06,15,30,6.40
2021,07,06,15,31,6.40
2021,07,06,15,32,9.60
2021,07,06,15,33,4.80
2021,07,06,15,34,6.40
2021,07,06,15,35,4.80
2021,07,06,15,36,6.40
2021,07,06,15,37,3.20
2021,07,06,15,38,12.90
2021,07,06,15,39,8.10
2021,07,06,15,40,6.40
2021,07,06,15,41,4.80
2021,07,06,15,42,3.20
2021,07,06,15,43,4.80
2021,07,06,15,44,4.80
2021,07,06,15,45,11.30
2021,07,06,15,46,11.30
2021,07,06,15,47,9.60
2021,07,06,15,48,6.40
2021,07,06,15,49,11.30
2021,07,06,15,50,9.60
2021,07,06,15,51,1.60
2021,07,06,15,52,4.80
2021,07,06,15,53,3.20
2021,07,06,15,54,3.20
2021,07,06,15,55,3.20
2021,07,06,15,56,3.20
2021,07,06,15,57,3.20
2021,07,06,15,58,3.20
2021,07,06,15,59,9.60
2021,07,06,16,00,8.10
2021,07,06,16,01,9.60
2021,07,06,16,02,8.10
2021,07,06,16,03,3.20
2021,07,06,16,04,6.40
2021,07,06,16,05,6.40
2021,07,06,16,06,14.50
2021,07,06,16,07,12.90
2021,07,06,16,08,9.60
2021,07,06,16,09,12.90
2021,07,06,16,10,6.40
2021,07,06,16,11,8.10
2021,07,06,16,12,3.20
2021,07,06,16,13,3.20
2021,07,06,16,14,11.30
2021,07,06,16,15,6.40
2021,07,06,16,16,3.20
2021,07,06,16,17,8.10
2021,07,06,16,18,9.60
2021,07,06,16,19,6.40
2021,07,06,16,20,4.80
2021,07,06,16,21,4.80
2021,07,06,16,22,12.90
2021,07,06,16,23,14.50
2021,07,06,16,24,12.90
2021,07,06,16,25,9.60
2021,07,06,16,26,12.90
2021,07,06,16,27,8.10
2021,07,06,16,28,6.40
2021,07,06,16,29,4.80
2021,07,06,16,30,9.60
2021,07,06,16,31,14.50
2021,07,06,16,32,11.30
2021,07,06,16,33,11.30
2021,07,06,16,34,9.60
2021,07,06,16,35,14.50
2021,07,06,16,36,14.50
2021,07,06,16,37,14.50
2021,07,06,16,38,16.10
2021,07,06,16,39,12.90
2021,07,06,16,40,14.50
2021,07,06,16,41,16.10
2021,07,06,16,42,11.30
2021,07,06,16,43,11.30
2021,07,06,16,44,14.50
2021,07,06,16,45,14.50
2021,07,06,16,46,12.90
2021,07,06,16,47,8.10
2021,07,06,16,48,6.40
2021,07,06,16,49,8.10
2021,07,06,16,50,11.30
2021,07,06,16,51,8.10
2021,07,06,16,52,9.60
2021,07,06,16,53,8.10
2021,07,06,16,54,11.30
2021,07,06,16,55,6.40
2021,07,06,16,56,12.90
2021,07,06,16,57,14.50
2021,07,06,16,58,8.10
2021,07,06,16,59,11.30
2021,07,06,17,00,9.60
2021,07,06,17,01,12.90
2021,07,06,17,02,12.90
2021,07,06,17,03,9.60
2021,07,06,17,04,8.10
2021,07,06,17,05,14.50
2021,07,06,17,06,11.30
2021,07,06,17,07,11.30
2021,07,06,17,08,11.30
2021,07,06,17,09,11.30
2021,07,06,17,10,4.80
2021,07,06,17,11,11.30
2021,07,06,17,12,6.40
2021,07,06,17,13,12.90
2021,07,06,17,14,11.30
2021,07,06,17,15,9.60
2021,07,06,17,16,11.30
2021,07,06,17,17,12.90
2021,07,06,17,18,11.30
2021,07,06,17,19,11.30
2021,07,06,17,20,12.90
2021,07,06,17,21,9.60
2021,07,06,17,22,14.50
2021,07,06,17,23,14.50
2021,07,06,17,24,11.30
2021,07,06,17,25,12.90
2021,07,06,17,26,9.60
2021,07,06,17,27,8.10
2021,07,06,17,28,9.60
2021,07,06,17,29,4.80
2021,07,06,17,30,11.30
2021,07,06,17,31,11.30
2021,07,06,17,32,9.60
2021,07,06,17,33,3.20
2021,07,06,17,34,4.80
2021,07,06,17,35,8.10
2021,07,06,17,36,3.20
2021,07,06,17,37,6.40
2021,07,06,17,38,8.10
2021,07,06,17,39,1.60
2021,07,06,17,40,4.80
2021,07,06,17,41,16.10
2021,07,06,17,42,14.50
2021,07,06,17,43,8.10
2021,07,06,17,44,11.30
2021,07,06,17,45,8.10
2021,07,06,17,46,11.30
2021,07,06,17,47,9.60
2021,07,06,17,48,8.10
2021,07,06,17,49,4.80
2021,07,06,17,50,14.50
2021,07,06,17,51,9.60
2021,07,06,17,52,8.10
2021,07,06,17,53,8.10
2021,07,06,17,54,11.30
2021,07,06,17,55,3.20
2021,07,06,17,56,4.80
2021,07,06,17,57,3.20
2021,07,06,17,58,3.20
2021,07,06,17,59,6.40
2021,07,06,18,00,8.10
2021,07,06,18,01,4.80
2021,07,06,18,02,6.40
2021,07,06,18,03,1.60
2021,07,06,18,04,4.80
2021,07,06,18,05,6.40
2021,07,06,18,06,8.10
2021,07,06,18,07,6.40
2021,07,06,18,08,8.10
2021,07,06,18,09,6.40
2021,07,06,18,10,4.80
2021,07,06,18,11,3.20
2021,07,06,18,12,12.90
2021,07,06,18,13,9.60
2021,07,06,18,14,16.10
2021,07,06,18,15,8.10
2021,07,06,18,16,9.60
2021,07,06,18,17,9.60
2021,07,06,18,18,14.50
2021,07,06,18,19,9.60
2021,07,06,18,20,9.60
2021,07,06,18,21,16.10
2021,07,06,18,22,16.10
2021,07,06,18,23,16.10
2021,07,06,18,24,12.90
2021,07,06,18,25,16.10
2021,07,06,18,26,9.60
2021,07,06,18,27,6.40
2021,07,06,18,28,4.80
2021,07,06,18,29,4.80
2021,07,06,18,30,8.10
2021,07,06,18,31,11.30
2021,07,06,18,32,8.10
2021,07,06,18,33,9.60
2021,07,06,18,34,9.60
2021,07,06,18,35,6.40
2021,07,06,18,36,3.20
2021,07,06,18,37,8.10
2021,07,06,18,38,8.10
2021,07,06,18,39,8.10
2021,07,06,18,40,12.90
2021,07,06,18,41,6.40
2021,07,06,18,42,6.40
2021,07,06,18,43,11.30
2021,07,06,18,44,6.40
2021,07,06,18,45,8.10
2021,07,06,18,46,8.10
2021,07,06,18,47,4.80
2021,07,06,18,48,6.40
2021,07,06,18,49,12.90
2021,07,06,18,50,14.50
2021,07,06,18,51,12.90
2021,07,06,18,52,9.60
2021,07,06,18,53,6.40
2021,07,06,18,54,4.80
2021,07,06,18,55,3.20
2021,07,06,18,56,8.10
2021,07,06,18,57,6.40
2021,07,06,18,58,4.80
2021,07,06,18,59,9.60
2021,07,06,19,00,12.90
2021,07,06,19,01,6.40
2021,07,06,19,02,6.40
2021,07,06,19,03,4.80
2021,07,06,19,04,8.10
2021,07,06,19,05,6.40
2021,07,06,19,06,8.10
2021,07,06,19,07,6.40
2021,07,06,19,08,6.40
2021,07,06,19,09,8.10
2021,07,06,19,10,4.80
2021,07,06,19,11,4.80
2021,07,06,19,12,4.80
2021,07,06,19,13,3.20
2021,07,06,19,14,4.80
2021,07,06,19,15,9.60
2021,07,06,19,16,11.30
2021,07,06,19,17,11.30
2021,07,06,19,18,12.90
2021,07,06,19,19,8.10
2021,07,06,19,20,1.60
2021,07,06,19,21,8.10
2021,07,06,19,22,4.80
2021,07,06,19,23,3.20
2021,07,06,19,24,8.10
2021,07,06,19,25,9.60
2021,07,06,19,26,9.60
2021,07,06,19,27,8.10
2021,07,06,19,28,6.40
2021,07,06,19,29,8.10
2021,07,06,19,30,3.20
2021,07,06,19,31,6.40
2021,07,06,19,32,6.40
2021,07,06,19,33,11.30
2021,07,06,19,34,9.60
2021,07,06,19,35,6.40
2021,07,06,19,36,8.10
2021,07,06,19,37,8.10
2021,07,06,19,38,9.60
2021,07,06,19,39,6.40
2021,07,06,19,40,4.80
2021,07,06,19,41,6.40
2021,07,06,19,42,6.40
2021,07,06,19,43,4.80
2021,07,06,19,44,4.80
2021,07,06,19,45,4.80
2021,07,06,19,46,6.40
2021,07,06,19,47,6.40
2021,07,06,19,48,6.40
2021,07,06,19,49,4.80
2021,07,06,19,50,6.40
2021,07,06,19,51,4.80
2021,07,06,19,52,6.40
2021,07,06,19,53,6.40
2021,07,06,19,54,8.10
2021,07,06,19,55,4.80
2021,07,06,19,56,6.40
2021,07,06,19,57,4.80
2021,07,06,19,58,4.80
2021,07,06,19,59,4.80
2021,07,06,20,00,6.40
2021,07,06,20,01,4.80
2021,07,06,20,02,4.80
2021,07,06,20,03,4.80
2021,07,06,20,04,6.40
2021,07,06,20,05,4.80
2021,07,06,20,06,6.40
2021,07,06,20,07,4.80
2021,07,06,20,08,6.40
2021,07,06,20,09,6.40
2021,07,06,20,10,6.40
2021,07,06,20,11,6.40
2021,07,06,20,12,6.40
2021,07,06,20,13,3.20
2021,07,06,20,14,4.80
2021,07,06,20,15,6.40
2021,07,06,20,16,6.40
2021,07,06,20,17,8.10
2021,07,06,20,18,6.40
2021,07,06,20,19,6.40
2021,07,06,20,20,4.80
2021,07,06,20,21,8.10
2021,07,06,20,22,4.80
2021,07,06,20,23,6.40
2021,07,06,20,24,4.80
2021,07,06,20,25,3.20
2021,07,06,20,26,4.80
2021,07,06,20,27,4.80
2021,07,06,20,28,3.20
2021,07,06,20,29,1.60
2021,07,06,20,30,4.80
2021,07,06,20,31,6.40
2021,07,06,20,32,4.80
2021,07,06,20,33,3.20
2021,07,06,20,34,1.60
2021,07,06,20,35,1.60
2021,07,06,20,36,1.60
2021,07,06,20,37,1.60
2021,07,06,20,40,1.60
2021,07,06,20,42,1.60
2021,07,06,20,45,1.60
2021,07,06,20,56,1.60
2021,07,06,21,01,1.60
2021,07,06,21,09,3.20
2021,07,06,21,10,1.60
2021,07,06,21,11,1.60
2021,07,06,21,12,1.60
2021,07,06,21,13,1.60
2021,07,06,21,14,1.60
2021,07,06,21,15,1.60
2021,07,06,21,16,1.60
2021,07,06,21,17,3.20
2021,07,06,21,18,3.20
2021,07,06,21,19,1.60
2021,07,06,21,20,1.60
2021,07,06,21,21,3.20
2021,07,06,21,22,1.60
2021,07,06,21,23,3.20
2021,07,06,21,24,4.80
2021,07,06,21,25,1.60
2021,07,06,21,26,1.60
2021,07,06,21,27,1.60
2021,07,06,21,28,3.20
2021,07,06,21,29,3.20
2021,07,06,21,30,4.80
2021,07,06,21,31,1.60
2021,07,06,21,32,3.20
2021,07,06,21,33,3.20
2021,07,06,21,34,1.60
2021,07,06,21,35,1.60
2021,07,06,21,36,4.80
2021,07,06,21,37,3.20
2021,07,06,21,38,3.20
2021,07,06,21,39,3.20
2021,07,06,21,40,3.20
2021,07,06,21,41,3.20
2021,07,06,21,42,1.60
2021,07,06,21,43,3.20
2021,07,06,21,44,4.80
2021,07,06,21,45,4.80
2021,07,06,21,46,4.80
2021,07,06,21,47,4.80
2021,07,06,21,48,3.20
2021,07,06,21,49,1.60
2021,07,06,21,50,3.20
2021,07,06,21,51,4.80
2021,07,06,21,52,6.40
2021,07,06,21,53,4.80
2021,07,06,21,54,6.40
2021,07,06,21,55,4.80
2021,07,06,21,56,4.80
2021,07,06,21,57,3.20
2021,07,06,21,58,3.20
2021,07,06,21,59,4.80
2021,07,06,22,00,4.80
2021,07,06,22,01,4.80
2021,07,06,22,02,4.80
2021,07,06,22,03,4.80
2021,07,06,22,04,6.40
2021,07,06,22,05,4.80
2021,07,06,22,06,3.20
2021,07,06,22,07,3.20
2021,07,06,22,08,3.20
2021,07,06,22,09,3.20
2021,07,06,22,12,3.20
2021,07,06,22,13,3.20
2021,07,06,22,14,1.60
2021,07,06,22,15,4.80
2021,07,06,22,16,4.80
2021,07,06,22,17,1.60
2021,07,06,22,18,3.20
2021,07,06,22,19,1.60
2021,07,06,22,20,1.60
2021,07,06,22,21,1.60
2021,07,06,22,22,1.60
2021,07,06,22,23,4.80
2021,07,06,22,24,4.80
2021,07,06,22,25,4.80
2021,07,06,22,26,1.60
2021,07,06,22,27,3.20
2021,07,06,22,28,4.80
2021,07,06,22,29,4.80
2021,07,06,22,30,3.20
2021,07,06,22,31,3.20
2021,07,06,22,32,1.60
2021,07,06,22,33,1.60
2021,07,06,22,34,1.60
2021,07,06,22,36,1.60
2021,07,06,22,37,1.60
2021,07,06,22,53,4.80
2021,07,06,22,54,4.80
2021,07,06,22,55,4.80
2021,07,06,22,56,4.80
2021,07,06,22,57,3.20
2021,07,06,22,58,3.20
2021,07,06,22,59,1.60
2021,07,06,23,00,1.60
2021,07,06,23,01,1.60
2021,07,06,23,02,3.20
2021,07,06,23,03,4.80
2021,07,06,23,04,4.80
2021,07,06,23,05,4.80
2021,07,06,23,06,4.80
2021,07,06,23,07,4.80
2021,07,06,23,08,4.80
2021,07,06,23,09,4.80
2021,07,06,23,10,4.80
2021,07,06,23,11,3.20
2021,07,06,23,12,1.60
2021,07,06,23,13,1.60
2021,07,06,23,42,1.60
2021,07,06,23,43,3.20
2021,07,06,23,44,1.60
2021,07,06,23,45,3.20
2021,07,06,23,46,3.20
2021,07,06,23,47,3.20
2021,07,06,23,49,1.60
2021,07,06,23,51,1.60
2021,07,06,23,52,3.20
2021,07,06,23,53,3.20
2021,07,06,23,54,4.80
2021,07,06,23,55,6.40
2021,07,06,23,56,6.40
2021,07,06,23,57,4.80
2021,07,06,23,58,4.80
2021,07,06,23,59,1.60
